STARLINK-2634, 48445

Orbit data source: Space-Track

STARLINK-2634, 48445 is a payload satellite owned by SpaceX/Seattle (US) in LEO that was launched on Sun, 09 May 2021 UTC via an FALCON 9 launch vehicle from the Air Force Eastern Test Range (AFETR). Payload-class satellites include a variety of spacecraft equipped with specific instruments for various scientific and technological missions. These include communications satellites like Starlink; space stations such as the ISS; scientific satellites like the Hubble; Earth observation satellites from companies like Planet Labs, Umbra, and HawkEye 360; GPS; miniature CubeSats for education and research; and military/defense satellites.

Loading next visibility...
Identifier
48445, 2021-040T
Orbit
LEO
Country
Flag of USUS
Related business
Manufacturer
SpaceX/Seattle
Mission
Operational Commercial Communications
Bus & Motor
STARLINK, Unknown motor
Mass
260 kg wet, ~248 kg dry
Launch date (UTC)
2021-05-09 (5 years ago)
Launch vehicle
FALCON 9
Launch site
Air Force Eastern Test Range (AFETR)
Object type
Payload
Rocket body
Debris
Shape & HBR
Box + 1 Pan, 10.1 m
Radar Cross Section
13.562 m², Large (>1 m²)

Expand to show TLE details & history
Last TLE update: 3 days ago

TLE from 3 days ago
0 STARLINK-2634
1 48445U 21040T   26170.91949445 -.00002142  00000-0 -57244-4 0  9990
2 48445  53.1595  62.5242 0001111 100.6034 259.5093 15.31710966282345
Epoch: 2026-06-19T22:04Z
TLE epoch observation values (Epoch: 2026-06-19T22:04:04.320Z)
Latitude
0.00001°
Longitude
-176.63535°
Altitude
471.746 km
Speed
7.631 km/s
True Right ascension
04h 10m 05s
True Declination
0° 00' 00"
Sunlit
Object was in daylight at epoch
Visualization orbit readout
Latitude
Unknown
Longitude
Unknown
Altitude
Unknown
Speed
Unknown
Apparent Right ascension
Unknown
Apparent Declination
Unknown
Sunlit
N/A
Visualization observer readout
Local Sidereal Time
21:24:05
Azimuth
Unknown
Elevation
Unknown
Doppler factor
Unknown
Orbital elements
Apogee altitude
471.725 km
Perigee altitude
470.203 km
Semi-major axis
6,849.101 km
Eccentricity
0.00011
Inclination
53.1595°
RAAN
62.5242°
Arg. of periapsis
100.6034°
True anomaly
259.49678°
Mean anomaly
259.5093°
Eccentric anomaly
259.50304°
Mean motion
3.82907 °/min
Orbital period
94.02 mins
BSTAR
-0.000057244
Loading maneuver chart data...
Computing Atmospheric mass density...

Documentation

Showing up to 5 results
|